{"data":{"norad_id":65073,"intl_designator":"2025-165T","name":"STARLINK-34781","alt_names":[],"object_type":"PAYLOAD","status":"ACTIVE","operator":null,"country":"US","launch_date":"2025-07-31","launch_site_code":"AFWTR","launch_vehicle":null,"mission":null,"orbit_class":"UNKNOWN","rcs_meters":null,"size_class":null,"mass_kg":null,"dimensions":null,"purposes":["comms"],"wikipedia_slug":null,"has_3d_model":false,"image_url":null,"decayed_at":null,"tle_current":{"epoch":"2026-05-25T02:28:45.876000Z","epoch_age_seconds":80272,"freshness":"FRESH","line1":"1 65073U 25165T   26145.10330875  .00003755  00000+0  26413-3 0  9993","line2":"2 65073  97.4508 222.2577 0001580 211.1892 148.9241 15.05660038 46295","mean_motion":15.05660038,"eccentricity":0.000158,"inclination_deg":97.4508,"raan_deg":222.2577,"arg_perigee_deg":211.1892,"mean_anomaly_deg":148.9241,"bstar":0.00026413,"rev_number":4629,"period_min":95.639119300316,"perigee_km":548.3858000969,"apogee_km":550.57492718381,"semimajor_km":6927.6173636404,"source":"CELESTRAK","updated_at":"2026-05-25T13:38:20.681647Z"}}}